Terminal Aerodrome Forecast
Issued by NWS

Home | Current Version | Previous Version | Text Only | Print | Product List | Glossary On
Versions: 1 2 3 4 5 6 7 8 9 10 11 12 13 14 15 16 17
000
FTUS44 KMAF 310500
TAFPEQ
TAF
KPEQ 310520Z 3106/0106 01010KT P6SM SCT120 OVC200
      TEMPO 3106/3108 VRB20G30KT TSRA BKN050CB
     FM311000 02015G23KT P6SM FEW050 BKN200=

USA.gov is the U.S. government's official web portal to all federal, state and local government web resources and services.